Weather History for Duluth Sky Harbor, MN

Change the Weather History Date:

Saturday, September 28, 2013

  Actual Average Record
Temperature  
Mean Temperature 61 °F -  
Max Temperature 71 °F 59 °F 82 °F (1952)
Min Temperature 50 °F 41 °F 23 °F (1961)
Degree Days  
Heating Degree Days 4    
Growing Degree Days 11 (Base 50)    
Moisture  
Dew Point 55 °F    
Average Humidity 76    
Maximum Humidity 100    
Minimum Humidity 57    
Precipitation  
Precipitation 0.00 in - - ()
Sea Level Pressure  
Sea Level Pressure 29.73 in    
Wind  
Wind Speed 13 mph (SSW)    
Max Wind Speed 28 mph    
Max Gust Speed 44 mph    
Visibility 10 miles    
Events Rain    
Averages and records for this station are not official NWS values.
T = Trace of Precipitation, MM = Missing Value Source: NWS Daily Summary

Daily Weather History Graph

Daily Weather History Graph

Search for Another Location

Airport:

Trip Planner

Search our weather history database for the weather conditions in past years. The results will help you decide how hot, cold, wet, or windy it might be!

Date:

Astronomy

Sep. 28, 2013 Rise Set
Actual Time 7:03 AM CDT 6:53 PM CDT
Civil Twilight 6:33 AM CDT 7:23 PM CDT
Nautical Twilight 5:57 AM CDT 7:58 PM CDT
Astronomical Twilight 5:21 AM CDT 8:34 PM CDT
Moon 12:32 AM CDT (9/28) 3:29 PM CDT (9/28)
Length of Visible Light 12h 50m
Length of Day
11h 50m
Waning Crescent, 36% of the Moon is Illuminated
Sep 28
Waning Crescent
Oct 4
New
Oct 11
First Quarter
Oct 18
Full
Oct 26
Last Quarter

Hourly Weather History & Observations

Time (CDT) Temp. Dew Point Humidity Pressure Visibility Wind Dir Wind Speed Gust Speed Precip Events Conditions
12:13 AM 71.6 °F 60.8 °F 69% 29.83 in 10.0 mi South 8.1 mph - N/A   Clear
12:33 AM 71.6 °F 59.0 °F 64% 29.83 in 10.0 mi South 11.5 mph - N/A   Clear
12:54 AM 71.6 °F 57.2 °F 60% 29.82 in 10.0 mi South 8.1 mph - N/A   Clear
1:13 AM 71.6 °F 57.2 °F 60% 29.81 in 10.0 mi South 11.5 mph 17.3 mph N/A   Clear
1:33 AM 71.6 °F 57.2 °F 60% 29.81 in 10.0 mi South 11.5 mph - N/A   Clear
1:54 AM 71.6 °F 57.2 °F 60% 29.81 in 10.0 mi South 12.7 mph 19.6 mph N/A   Scattered Clouds
2:13 AM 71.6 °F 55.4 °F 57% 29.80 in 10.0 mi South 15.0 mph - N/A   Clear
2:33 AM 71.6 °F 55.4 °F 57% 29.80 in 10.0 mi South 13.8 mph - N/A   Clear
2:53 AM 71.6 °F 55.4 °F 57% 29.79 in 10.0 mi South 15.0 mph - N/A   Clear
3:13 AM 71.6 °F 55.4 °F 57% 29.79 in 10.0 mi South 13.8 mph 19.6 mph N/A   Clear
3:34 AM 69.8 °F 55.4 °F 60% 29.79 in 10.0 mi South 15.0 mph - N/A   Mostly Cloudy
3:53 AM 69.8 °F 55.4 °F 60% 29.78 in 10.0 mi South 15.0 mph - N/A   Mostly Cloudy
4:13 AM 69.8 °F 55.4 °F 60% 29.77 in 10.0 mi South 13.8 mph 19.6 mph N/A   Scattered Clouds
4:34 AM 69.8 °F 55.4 °F 60% 29.76 in 10.0 mi South 15.0 mph - N/A   Clear
4:53 AM 69.8 °F 55.4 °F 60% 29.76 in 10.0 mi South 15.0 mph 18.4 mph N/A   Clear
5:13 AM 69.8 °F 55.4 °F 60% 29.76 in 10.0 mi South 16.1 mph 24.2 mph N/A   Clear
5:34 AM 68.0 °F 55.4 °F 64% 29.75 in 10.0 mi South 15.0 mph 21.9 mph N/A   Clear
5:53 AM 68.0 °F 55.4 °F 64% 29.74 in 10.0 mi South 12.7 mph 19.6 mph N/A   Clear
6:13 AM 66.2 °F 55.4 °F 68% 29.74 in 10.0 mi South 13.8 mph - N/A   Clear
6:34 AM 66.2 °F 55.4 °F 68% 29.74 in 10.0 mi SSE 10.4 mph 17.3 mph N/A   Clear
6:53 AM 64.4 °F 55.4 °F 73% 29.73 in 10.0 mi SSE 12.7 mph - N/A   Clear
7:13 AM 64.4 °F 55.4 °F 73% 29.73 in 10.0 mi South 12.7 mph - N/A   Clear
7:34 AM 64.4 °F 55.4 °F 73% 29.72 in 10.0 mi SSE 13.8 mph - N/A   Scattered Clouds
7:53 AM 64.4 °F 55.4 °F 73% 29.72 in 10.0 mi SSE 12.7 mph 19.6 mph N/A   Scattered Clouds
8:14 AM 66.2 °F 55.4 °F 68% 29.70 in 10.0 mi South 15.0 mph - N/A   Scattered Clouds
8:33 AM 66.2 °F 55.4 °F 68% 29.69 in 10.0 mi South 12.7 mph 18.4 mph N/A   Scattered Clouds
8:53 AM 66.2 °F 55.4 °F 68% 29.69 in 10.0 mi SSE 9.2 mph 19.6 mph N/A   Clear
9:14 AM 68.0 °F 55.4 °F 64% 29.67 in 10.0 mi South 15.0 mph 20.7 mph N/A   Clear
9:33 AM 68.0 °F 57.2 °F 68% 29.66 in 10.0 mi South 11.5 mph 20.7 mph N/A   Scattered Clouds
9:53 AM 68.0 °F 57.2 °F 68% 29.65 in 10.0 mi SSE 13.8 mph 20.7 mph N/A   Scattered Clouds
10:13 AM 68.0 °F 57.2 °F 68% 29.65 in 10.0 mi South 12.7 mph - N/A   Mostly Cloudy
10:33 AM 69.8 °F 57.2 °F 64% 29.64 in 10.0 mi SSE 15.0 mph - N/A   Mostly Cloudy
10:54 AM 69.8 °F 57.2 °F 64% 29.62 in 10.0 mi South 16.1 mph - N/A   Mostly Cloudy
11:13 AM 69.8 °F 59.0 °F 68% 29.61 in 10.0 mi SSE 13.8 mph 24.2 mph N/A   Mostly Cloudy
11:33 AM 69.8 °F 60.8 °F 73% 29.59 in 10.0 mi South 16.1 mph 24.2 mph N/A Rain Rain
11:54 AM 69.8 °F 60.8 °F 73% 29.58 in 7.0 mi South 20.7 mph 24.2 mph N/A Rain Rain
12:13 PM 64.4 °F 60.8 °F 88% 29.59 in 5.0 mi South 16.1 mph 25.3 mph N/A Rain Rain
12:34 PM 62.6 °F 60.8 °F 94% 29.58 in 7.0 mi South 15.0 mph - N/A Rain Rain
12:53 PM 62.6 °F 60.8 °F 94% 29.58 in 7.0 mi South 15.0 mph - N/A Rain Light Rain
1:14 PM 62.6 °F 60.8 °F 94% 29.56 in 10.0 mi South 17.3 mph 21.9 mph N/A   Overcast
1:33 PM 62.6 °F 60.8 °F 94% 29.56 in 10.0 mi South 17.3 mph 25.3 mph N/A   Overcast
1:53 PM 62.6 °F 60.8 °F 94% 29.55 in 3.0 mi South 16.1 mph - N/A Rain Rain
2:14 PM 60.8 °F 57.2 °F 88% 29.58 in 3.0 mi WSW 27.6 mph 43.7 mph N/A Rain Light Rain
2:33 PM 57.2 °F 55.4 °F 94% 29.60 in 10.0 mi WSW 24.2 mph 28.8 mph N/A   Drizzle
2:53 PM 55.4 °F 53.6 °F 94% 29.63 in 7.0 mi SW 21.9 mph 28.8 mph N/A Rain Light Rain
3:14 PM 55.4 °F 53.6 °F 94% 29.64 in 7.0 mi WSW 23.0 mph 31.1 mph N/A   Drizzle
3:33 PM 55.4 °F 53.6 °F 94% 29.65 in 10.0 mi WSW 19.6 mph 32.2 mph N/A Rain Rain
3:54 PM 55.4 °F 53.6 °F 94% 29.68 in 10.0 mi WSW 16.1 mph 24.2 mph N/A   Overcast
4:13 PM 53.6 °F 53.6 °F 100% 29.68 in 10.0 mi WSW 17.3 mph 25.3 mph N/A   Mostly Cloudy
4:33 PM 53.6 °F 53.6 °F 100% 29.71 in 10.0 mi WSW 16.1 mph - N/A   Scattered Clouds
4:54 PM 55.4 °F 53.6 °F 94% 29.71 in 10.0 mi WSW 15.0 mph - N/A   Mostly Cloudy
5:13 PM 55.4 °F 53.6 °F 94% 29.72 in 10.0 mi SW 13.8 mph - N/A   Scattered Clouds
5:33 PM 59.0 °F 51.8 °F 77% 29.73 in 10.0 mi WSW 19.6 mph - N/A   Scattered Clouds
5:54 PM 59.0 °F 51.8 °F 77% 29.74 in 10.0 mi WSW 20.7 mph 25.3 mph N/A   Mostly Cloudy
6:13 PM 59.0 °F 51.8 °F 77% 29.75 in 10.0 mi WSW 10.4 mph - N/A   Overcast
6:33 PM 57.2 °F 51.8 °F 82% 29.75 in 10.0 mi WSW 15.0 mph - N/A   Scattered Clouds
6:54 PM 57.2 °F 51.8 °F 82% 29.76 in 10.0 mi WSW 13.8 mph - N/A   Clear
7:13 PM 57.2 °F 51.8 °F 82% 29.77 in 10.0 mi SW 12.7 mph - N/A   Clear
7:33 PM 55.4 °F 50.0 °F 82% 29.79 in 10.0 mi SW 16.1 mph - N/A   Mostly Cloudy
7:53 PM 57.2 °F 50.0 °F 77% 29.79 in 10.0 mi SW 13.8 mph - N/A   Overcast
8:13 PM 57.2 °F 51.8 °F 82% 29.81 in 10.0 mi WSW 15.0 mph 23.0 mph N/A   Overcast
8:33 PM 55.4 °F 50.0 °F 82% 29.82 in 10.0 mi WSW 17.3 mph 24.2 mph N/A   Overcast
8:53 PM 55.4 °F 50.0 °F 82% 29.83 in 10.0 mi WSW 13.8 mph 18.4 mph N/A   Mostly Cloudy
9:13 PM 55.4 °F 48.2 °F 77% 29.84 in 10.0 mi WSW 17.3 mph 23.0 mph N/A   Clear
9:33 PM 55.4 °F 48.2 °F 77% 29.85 in 10.0 mi WSW 12.7 mph - N/A   Clear
9:53 PM 53.6 °F 48.2 °F 82% 29.86 in 10.0 mi WSW 12.7 mph - N/A   Clear
10:13 PM 53.6 °F 48.2 °F 82% 29.87 in 10.0 mi WSW 11.5 mph 19.6 mph N/A   Clear
10:34 PM 53.6 °F 48.2 °F 82% 29.87 in 10.0 mi SW 9.2 mph - N/A   Clear
10:53 PM 51.8 °F 46.4 °F 82% 29.87 in 10.0 mi SSW 9.2 mph - N/A   Clear
11:13 PM 51.8 °F 46.4 °F 82% 29.87 in 10.0 mi SSW 9.2 mph - N/A   Clear
11:33 PM 51.8 °F 46.4 °F 82% 29.88 in 10.0 mi SSW 9.2 mph - N/A   Clear
11:53 PM 50.0 °F 46.4 °F 87% 29.88 in 10.0 mi SSW 8.1 mph - N/A   Clear